Location: ??????????
(48.4699°N, 37.9573°E)
Time: 03:18:00
(UTC+00:00)

Cosmos 1634 Rocket - Pass Details

Date: 20 January 2021
Orbit: 960 x 991 km, 82.9° (Epoch: 24 February)

Event Time Altitude Azimuth Distance (km) Brightness Sun altitude
Rises 14:38:09 0° 351° (N) 3,674 6.9 -5.3°
Reaches altitude 10° 14:40:40 10° 353° (N) 2,727 6.2 -5.6°
Maximum altitude 14:46:56 76° 80° (E) 1,010 4.0 -6.6°
Drops below altitude 10° 14:53:12 10° 166° (SSE) 2,730 6.5 -7.5°
Sets 14:55:43 0° 168° (SSE) 3,678 7.1 -7.9°
